Year,Month,Day,Hour,Minute,Value (Times are PST for temperature in C)
2005,09,18,00,00,11.50
2005,09,18,00,01,11.40
2005,09,18,00,02,11.40
2005,09,18,00,03,11.40
2005,09,18,00,04,11.40
2005,09,18,00,05,11.40
2005,09,18,00,06,11.40
2005,09,18,00,07,11.40
2005,09,18,00,08,11.40
2005,09,18,00,09,11.40
2005,09,18,00,10,11.40
2005,09,18,00,11,11.40
2005,09,18,00,12,11.40
2005,09,18,00,13,11.40
2005,09,18,00,14,11.50
2005,09,18,00,15,11.60
2005,09,18,00,16,11.60
2005,09,18,00,17,11.60
2005,09,18,00,18,11.60
2005,09,18,00,19,11.60
2005,09,18,00,20,11.60
2005,09,18,00,21,11.60
2005,09,18,00,22,11.60
2005,09,18,00,23,11.50
2005,09,18,00,24,11.40
2005,09,18,00,25,11.40
2005,09,18,00,26,11.40
2005,09,18,00,27,11.40
2005,09,18,00,28,11.40
2005,09,18,00,29,11.40
2005,09,18,00,30,11.40
2005,09,18,00,31,11.40
2005,09,18,00,32,11.40
2005,09,18,00,33,11.40
2005,09,18,00,34,11.40
2005,09,18,00,35,11.40
2005,09,18,00,36,11.40
2005,09,18,00,37,11.40
2005,09,18,00,38,11.30
2005,09,18,00,39,11.30
2005,09,18,00,40,11.30
2005,09,18,00,41,11.30
2005,09,18,00,42,11.30
2005,09,18,00,43,11.30
2005,09,18,00,44,11.20
2005,09,18,00,45,11.20
2005,09,18,00,46,11.20
2005,09,18,00,47,11.20
2005,09,18,00,48,11.10
2005,09,18,00,49,11.10
2005,09,18,00,50,11.10
2005,09,18,00,51,11.00
2005,09,18,00,52,10.90
2005,09,18,00,53,10.90
2005,09,18,00,54,10.90
2005,09,18,00,55,10.90
2005,09,18,00,56,10.90
2005,09,18,00,57,10.90
2005,09,18,00,58,10.90
2005,09,18,00,59,10.90
2005,09,18,01,00,10.90
2005,09,18,01,01,10.90
2005,09,18,01,02,10.90
2005,09,18,01,03,10.90
2005,09,18,01,04,10.90
2005,09,18,01,05,10.90
2005,09,18,01,06,10.80
2005,09,18,01,07,10.80
2005,09,18,01,08,10.80
2005,09,18,01,09,10.80
2005,09,18,01,10,10.80
2005,09,18,01,11,10.80
2005,09,18,01,12,10.70
2005,09,18,01,13,10.60
2005,09,18,01,14,10.60
2005,09,18,01,15,10.60
2005,09,18,01,16,10.50
2005,09,18,01,17,10.40
2005,09,18,01,18,10.40
2005,09,18,01,19,10.40
2005,09,18,01,20,10.40
2005,09,18,01,21,10.40
2005,09,18,01,22,10.30
2005,09,18,01,23,10.30
2005,09,18,01,24,10.30
2005,09,18,01,25,10.30
2005,09,18,01,26,10.30
2005,09,18,01,27,10.30
2005,09,18,01,28,10.30
2005,09,18,01,29,10.30
2005,09,18,01,30,10.20
2005,09,18,01,31,10.20
2005,09,18,01,32,10.20
2005,09,18,01,33,10.20
2005,09,18,01,34,10.20
2005,09,18,01,35,10.20
2005,09,18,01,36,10.20
2005,09,18,01,37,10.20
2005,09,18,01,38,10.10
2005,09,18,01,39,10.20
2005,09,18,01,40,10.20
2005,09,18,01,41,10.10
2005,09,18,01,42,10.10
2005,09,18,01,43,10.10
2005,09,18,01,44,10.10
2005,09,18,01,45,10.10
2005,09,18,01,46,10.10
2005,09,18,01,47,10.10
2005,09,18,01,48,10.10
2005,09,18,01,49,10.10
2005,09,18,01,50,10.10
2005,09,18,01,51,10.10
2005,09,18,01,52,10.10
2005,09,18,01,53,10.10
2005,09,18,01,54,10.10
2005,09,18,01,55,10.10
2005,09,18,01,56,10.10
2005,09,18,01,57,10.10
2005,09,18,01,58,10.10
2005,09,18,01,59,10.10
2005,09,18,02,00,10.10
2005,09,18,02,01,10.10
2005,09,18,02,02,10.10
2005,09,18,02,03,10.10
2005,09,18,02,04,10.10
2005,09,18,02,05,10.10
2005,09,18,02,06,10.10
2005,09,18,02,07,10.10
2005,09,18,02,08,10.10
2005,09,18,02,09,10.10
2005,09,18,02,10,10.10
2005,09,18,02,11,10.00
2005,09,18,02,12,9.90
2005,09,18,02,13,9.90
2005,09,18,02,14,9.90
2005,09,18,02,15,9.90
2005,09,18,02,16,9.90
2005,09,18,02,17,9.90
2005,09,18,02,18,9.80
2005,09,18,02,19,9.80
2005,09,18,02,20,9.80
2005,09,18,02,21,9.80
2005,09,18,02,22,9.70
2005,09,18,02,23,9.70
2005,09,18,02,24,9.70
2005,09,18,02,25,9.70
2005,09,18,02,26,9.70
2005,09,18,02,27,9.70
2005,09,18,02,28,9.70
2005,09,18,02,29,9.70
2005,09,18,02,30,9.70
2005,09,18,02,31,9.70
2005,09,18,02,32,9.70
2005,09,18,02,33,9.70
2005,09,18,02,34,9.70
2005,09,18,02,35,9.70
2005,09,18,02,36,9.70
2005,09,18,02,37,9.70
2005,09,18,02,38,9.70
2005,09,18,02,39,9.60
2005,09,18,02,40,9.60
2005,09,18,02,41,9.60
2005,09,18,02,42,9.60
2005,09,18,02,43,9.70
2005,09,18,02,44,9.70
2005,09,18,02,45,9.70
2005,09,18,02,46,9.60
2005,09,18,02,47,9.60
2005,09,18,02,48,9.50
2005,09,18,02,49,9.50
2005,09,18,02,50,9.50
2005,09,18,02,51,9.50
2005,09,18,02,52,9.50
2005,09,18,02,53,9.50
2005,09,18,02,54,9.40
2005,09,18,02,55,9.40
2005,09,18,02,56,9.40
2005,09,18,02,57,9.40
2005,09,18,02,58,9.40
2005,09,18,02,59,9.40
2005,09,18,03,00,9.40
2005,09,18,03,01,9.40
2005,09,18,03,02,9.40
2005,09,18,03,03,9.40
2005,09,18,03,04,9.40
2005,09,18,03,05,9.40
2005,09,18,03,06,9.40
2005,09,18,03,07,9.40
2005,09,18,03,08,9.40
2005,09,18,03,09,9.40
2005,09,18,03,10,9.40
2005,09,18,03,11,9.40
2005,09,18,03,12,9.40
2005,09,18,03,13,9.40
2005,09,18,03,14,9.40
2005,09,18,03,15,9.40
2005,09,18,03,16,9.50
2005,09,18,03,17,9.50
2005,09,18,03,18,9.50
2005,09,18,03,19,9.50
2005,09,18,03,20,9.50
2005,09,18,03,21,9.50
2005,09,18,03,22,9.50
2005,09,18,03,23,9.50
2005,09,18,03,24,9.50
2005,09,18,03,25,9.40
2005,09,18,03,26,9.40
2005,09,18,03,27,9.40
2005,09,18,03,28,9.50
2005,09,18,03,29,9.50
2005,09,18,03,30,9.50
2005,09,18,03,31,9.50
2005,09,18,03,32,9.50
2005,09,18,03,33,9.50
2005,09,18,03,34,9.50
2005,09,18,03,35,9.50
2005,09,18,03,36,9.50
2005,09,18,03,37,9.50
2005,09,18,03,38,9.50
2005,09,18,03,39,9.50
2005,09,18,03,40,9.50
2005,09,18,03,41,9.50
2005,09,18,03,42,9.50
2005,09,18,03,43,9.50
2005,09,18,03,44,9.50
2005,09,18,03,45,9.50
2005,09,18,03,46,9.50
2005,09,18,03,47,9.50
2005,09,18,03,48,9.50
2005,09,18,03,49,9.40
2005,09,18,03,50,9.40
2005,09,18,03,51,9.40
2005,09,18,03,52,9.30
2005,09,18,03,53,9.30
2005,09,18,03,54,9.30
2005,09,18,03,55,9.30
2005,09,18,03,56,9.20
2005,09,18,03,57,9.20
2005,09,18,03,58,9.20
2005,09,18,03,59,9.20
2005,09,18,04,00,9.20
2005,09,18,04,01,9.20
2005,09,18,04,02,9.20
2005,09,18,04,03,9.20
2005,09,18,04,04,9.20
2005,09,18,04,05,9.20
2005,09,18,04,06,9.10
2005,09,18,04,07,9.10
2005,09,18,04,08,9.10
2005,09,18,04,09,9.10
2005,09,18,04,10,9.10
2005,09,18,04,11,9.00
2005,09,18,04,12,9.00
2005,09,18,04,13,9.00
2005,09,18,04,14,9.00
2005,09,18,04,15,9.00
2005,09,18,04,16,9.00
2005,09,18,04,17,9.00
2005,09,18,04,18,9.00
2005,09,18,04,19,9.00
2005,09,18,04,20,9.00
2005,09,18,04,21,9.00
2005,09,18,04,22,9.00
2005,09,18,04,23,9.00
2005,09,18,04,24,9.10
2005,09,18,04,25,9.10
2005,09,18,04,26,9.10
2005,09,18,04,27,9.10
2005,09,18,04,28,9.10
2005,09,18,04,29,9.10
2005,09,18,04,30,9.00
2005,09,18,04,31,9.00
2005,09,18,04,32,9.00
2005,09,18,04,33,9.00
2005,09,18,04,34,9.00
2005,09,18,04,35,9.00
2005,09,18,04,36,9.00
2005,09,18,04,37,9.00
2005,09,18,04,38,9.00
2005,09,18,04,39,9.00
2005,09,18,04,40,9.00
2005,09,18,04,41,9.00
2005,09,18,04,42,9.00
2005,09,18,04,43,9.00
2005,09,18,04,44,9.00
2005,09,18,04,45,9.10
2005,09,18,04,46,9.00
2005,09,18,04,47,9.10
2005,09,18,04,48,9.10
2005,09,18,04,49,9.10
2005,09,18,04,50,9.10
2005,09,18,04,51,9.00
2005,09,18,04,52,9.00
2005,09,18,04,53,9.00
2005,09,18,04,54,9.00
2005,09,18,04,55,8.90
2005,09,18,04,56,8.90
2005,09,18,04,57,8.90
2005,09,18,04,58,8.90
2005,09,18,04,59,8.90
2005,09,18,05,00,8.90
2005,09,18,05,01,8.80
2005,09,18,05,02,8.80
2005,09,18,05,03,8.80
2005,09,18,05,04,8.70
2005,09,18,05,05,8.70
2005,09,18,05,06,8.70
2005,09,18,05,07,8.70
2005,09,18,05,08,8.70
2005,09,18,05,09,8.70
2005,09,18,05,10,8.70
2005,09,18,05,11,8.70
2005,09,18,05,12,8.70
2005,09,18,05,13,8.70
2005,09,18,05,14,8.70
2005,09,18,05,15,8.70
2005,09,18,05,16,8.70
2005,09,18,05,17,8.70
2005,09,18,05,18,8.70
2005,09,18,05,19,8.70
2005,09,18,05,20,8.70
2005,09,18,05,21,8.60
2005,09,18,05,22,8.60
2005,09,18,05,23,8.60
2005,09,18,05,24,8.60
2005,09,18,05,25,8.60
2005,09,18,05,26,8.60
2005,09,18,05,27,8.60
2005,09,18,05,28,8.60
2005,09,18,05,29,8.60
2005,09,18,05,30,8.60
2005,09,18,05,31,8.60
2005,09,18,05,32,8.60
2005,09,18,05,33,8.60
2005,09,18,05,34,8.50
2005,09,18,05,35,8.50
2005,09,18,05,36,8.50
2005,09,18,05,37,8.50
2005,09,18,05,38,8.50
2005,09,18,05,39,8.40
2005,09,18,05,40,8.40
2005,09,18,05,41,8.30
2005,09,18,05,42,8.30
2005,09,18,05,43,8.30
2005,09,18,05,44,8.30
2005,09,18,05,45,8.20
2005,09,18,05,46,8.20
2005,09,18,05,47,8.20
2005,09,18,05,48,8.20
2005,09,18,05,49,8.20
2005,09,18,05,50,8.20
2005,09,18,05,51,8.20
2005,09,18,05,52,8.20
2005,09,18,05,53,8.20
2005,09,18,05,54,8.20
2005,09,18,05,55,8.20
2005,09,18,05,56,8.20
2005,09,18,05,57,8.20
2005,09,18,05,58,8.20
2005,09,18,05,59,8.20
2005,09,18,06,00,8.20
2005,09,18,06,01,8.20
2005,09,18,06,02,8.20
2005,09,18,06,03,8.20
2005,09,18,06,04,8.20
2005,09,18,06,05,8.20
2005,09,18,06,06,8.20
2005,09,18,06,07,8.20
2005,09,18,06,08,8.20
2005,09,18,06,09,8.20
2005,09,18,06,10,8.20
2005,09,18,06,11,8.20
2005,09,18,06,12,8.20
2005,09,18,06,13,8.20
2005,09,18,06,14,8.20
2005,09,18,06,15,8.10
2005,09,18,06,16,8.20
2005,09,18,06,17,8.20
2005,09,18,06,18,8.20
2005,09,18,06,19,8.20
2005,09,18,06,20,8.10
2005,09,18,06,21,8.10
2005,09,18,06,22,8.10
2005,09,18,06,23,8.10
2005,09,18,06,24,8.10
2005,09,18,06,25,8.10
2005,09,18,06,26,8.10
2005,09,18,06,27,8.10
2005,09,18,06,28,8.10
2005,09,18,06,29,8.10
2005,09,18,06,30,8.10
2005,09,18,06,31,8.10
2005,09,18,06,32,8.10
2005,09,18,06,33,8.20
2005,09,18,06,34,8.20
2005,09,18,06,35,8.20
2005,09,18,06,36,8.20
2005,09,18,06,37,8.20
2005,09,18,06,38,8.20
2005,09,18,06,39,8.20
2005,09,18,06,40,8.20
2005,09,18,06,41,8.20
2005,09,18,06,42,8.30
2005,09,18,06,43,8.30
2005,09,18,06,44,8.40
2005,09,18,06,45,8.40
2005,09,18,06,46,8.40
2005,09,18,06,47,8.50
2005,09,18,06,48,8.50
2005,09,18,06,49,8.50
2005,09,18,06,50,8.60
2005,09,18,06,51,8.60
2005,09,18,06,52,8.70
2005,09,18,06,53,8.70
2005,09,18,06,54,8.80
2005,09,18,06,55,8.90
2005,09,18,06,56,8.90
2005,09,18,06,57,9.00
2005,09,18,06,58,9.10
2005,09,18,06,59,9.20
2005,09,18,07,00,9.20
2005,09,18,07,01,9.30
2005,09,18,07,02,9.40
2005,09,18,07,03,9.40
2005,09,18,07,04,9.50
2005,09,18,07,05,9.60
2005,09,18,07,06,9.60
2005,09,18,07,07,9.70
2005,09,18,07,08,9.70
2005,09,18,07,09,9.70
2005,09,18,07,10,9.70
2005,09,18,07,11,9.70
2005,09,18,07,12,9.70
2005,09,18,07,13,9.70
2005,09,18,07,14,9.70
2005,09,18,07,15,9.80
2005,09,18,07,16,9.80
2005,09,18,07,17,9.80
2005,09,18,07,18,9.80
2005,09,18,07,19,9.80
2005,09,18,07,20,9.80
2005,09,18,07,21,9.80
2005,09,18,07,22,9.80
2005,09,18,07,23,9.90
2005,09,18,07,24,9.90
2005,09,18,07,25,9.90
2005,09,18,07,26,9.90
2005,09,18,07,27,9.90
2005,09,18,07,28,10.00
2005,09,18,07,29,10.10
2005,09,18,07,30,10.10
2005,09,18,07,31,10.10
2005,09,18,07,32,10.20
2005,09,18,07,33,10.20
2005,09,18,07,34,10.30
2005,09,18,07,35,10.30
2005,09,18,07,36,10.40
2005,09,18,07,37,10.50
2005,09,18,07,38,10.60
2005,09,18,07,39,10.60
2005,09,18,07,40,10.70
2005,09,18,07,41,10.80
2005,09,18,07,42,10.90
2005,09,18,07,43,10.90
2005,09,18,07,44,11.00
2005,09,18,07,45,11.10
2005,09,18,07,46,11.20
2005,09,18,07,47,11.30
2005,09,18,07,48,11.40
2005,09,18,07,49,11.40
2005,09,18,07,50,11.50
2005,09,18,07,51,11.60
2005,09,18,07,52,11.70
2005,09,18,07,53,11.80
2005,09,18,07,54,11.80
2005,09,18,07,55,11.90
2005,09,18,07,56,12.00
2005,09,18,07,57,12.00
2005,09,18,07,58,12.10
2005,09,18,07,59,12.20
2005,09,18,08,00,12.20
2005,09,18,08,01,12.30
2005,09,18,08,02,12.30
2005,09,18,08,03,12.30
2005,09,18,08,04,12.30
2005,09,18,08,05,12.30
2005,09,18,08,06,12.30
2005,09,18,08,07,12.30
2005,09,18,08,08,12.40
2005,09,18,08,09,12.40
2005,09,18,08,10,12.40
2005,09,18,08,11,12.40
2005,09,18,08,12,12.30
2005,09,18,08,13,12.30
2005,09,18,08,14,12.30
2005,09,18,08,15,12.30
2005,09,18,08,16,12.30
2005,09,18,08,17,12.20
2005,09,18,08,18,12.20
2005,09,18,08,19,12.20
2005,09,18,08,20,12.20
2005,09,18,08,21,12.20
2005,09,18,08,22,12.20
2005,09,18,08,23,12.10
2005,09,18,08,24,12.10
2005,09,18,08,25,12.10
2005,09,18,08,26,12.00
2005,09,18,08,27,12.00
2005,09,18,08,28,12.00
2005,09,18,08,29,11.90
2005,09,18,08,30,11.90
2005,09,18,08,31,11.80
2005,09,18,08,32,11.80
2005,09,18,08,33,11.80
2005,09,18,08,34,11.80
2005,09,18,08,35,11.80
2005,09,18,08,36,11.70
2005,09,18,08,37,11.70
2005,09,18,08,38,11.70
2005,09,18,08,39,11.70
2005,09,18,08,40,11.60
2005,09,18,08,41,11.60
2005,09,18,08,42,11.60
2005,09,18,08,43,11.60
2005,09,18,08,44,11.60
2005,09,18,08,45,11.50
2005,09,18,08,46,11.40
2005,09,18,08,47,11.40
2005,09,18,08,48,11.40
2005,09,18,08,49,11.40
2005,09,18,08,50,11.40
2005,09,18,08,51,11.40
2005,09,18,08,52,11.40
2005,09,18,08,53,11.40
2005,09,18,08,54,11.40
2005,09,18,08,55,11.40
2005,09,18,08,56,11.40
2005,09,18,08,57,11.40
2005,09,18,08,58,11.50
2005,09,18,08,59,11.60
2005,09,18,09,00,11.60
2005,09,18,09,01,11.60
2005,09,18,09,02,11.60
2005,09,18,09,03,11.60
2005,09,18,09,04,11.60
2005,09,18,09,05,11.60
2005,09,18,09,06,11.60
2005,09,18,09,07,11.60
2005,09,18,09,08,11.60
2005,09,18,09,09,11.60
2005,09,18,09,10,11.40
2005,09,18,09,11,11.40
2005,09,18,09,12,11.40
2005,09,18,09,13,11.40
2005,09,18,09,14,11.40
2005,09,18,09,15,11.40
2005,09,18,09,16,11.40
2005,09,18,09,17,11.50
2005,09,18,09,18,11.60
2005,09,18,09,19,11.60
2005,09,18,09,20,11.60
2005,09,18,09,21,11.60
2005,09,18,09,22,11.70
2005,09,18,09,23,11.80
2005,09,18,09,24,11.80
2005,09,18,09,25,11.90
2005,09,18,09,26,12.00
2005,09,18,09,27,12.10
2005,09,18,09,28,12.20
2005,09,18,09,29,12.30
2005,09,18,09,30,12.40
2005,09,18,09,31,12.50
2005,09,18,09,32,12.60
2005,09,18,09,33,12.80
2005,09,18,09,34,12.90
2005,09,18,09,35,13.00
2005,09,18,09,36,13.00
2005,09,18,09,37,13.00
2005,09,18,09,38,13.00
2005,09,18,09,39,13.00
2005,09,18,09,40,13.10
2005,09,18,09,41,13.10
2005,09,18,09,42,13.20
2005,09,18,09,43,13.20
2005,09,18,09,44,13.30
2005,09,18,09,45,13.30
2005,09,18,09,46,13.40
2005,09,18,09,47,13.40
2005,09,18,09,48,13.50
2005,09,18,09,49,13.60
2005,09,18,09,50,13.70
2005,09,18,09,51,13.70
2005,09,18,09,52,13.80
2005,09,18,09,53,13.90
2005,09,18,09,54,14.00
2005,09,18,09,55,14.10
2005,09,18,09,56,14.20
2005,09,18,09,57,14.20
2005,09,18,09,58,14.30
2005,09,18,09,59,14.40
2005,09,18,10,00,14.50
2005,09,18,10,01,14.50
2005,09,18,10,02,14.60
2005,09,18,10,03,14.60
2005,09,18,10,04,14.70
2005,09,18,10,05,14.70
2005,09,18,10,06,14.80
2005,09,18,10,07,14.80
2005,09,18,10,08,14.80
2005,09,18,10,09,14.80
2005,09,18,10,10,14.70
2005,09,18,10,11,14.70
2005,09,18,10,12,14.60
2005,09,18,10,13,14.60
2005,09,18,10,14,14.50
2005,09,18,10,15,14.60
2005,09,18,10,16,14.50
2005,09,18,10,17,14.50
2005,09,18,10,18,14.40
2005,09,18,10,19,14.30
2005,09,18,10,20,14.30
2005,09,18,10,21,14.30
2005,09,18,10,22,14.40
2005,09,18,10,23,14.50
2005,09,18,10,24,14.50
2005,09,18,10,25,14.60
2005,09,18,10,26,14.60
2005,09,18,10,27,14.60
2005,09,18,10,28,14.60
2005,09,18,10,29,14.60
2005,09,18,10,30,14.60
2005,09,18,10,31,14.60
2005,09,18,10,32,14.60
2005,09,18,10,33,14.50
2005,09,18,10,34,14.50
2005,09,18,10,35,14.40
2005,09,18,10,36,14.40
2005,09,18,10,37,14.50
2005,09,18,10,38,14.50
2005,09,18,10,39,14.60
2005,09,18,10,40,14.70
2005,09,18,10,41,14.80
2005,09,18,10,42,14.80
2005,09,18,10,43,14.90
2005,09,18,10,44,15.00
2005,09,18,10,45,15.00
2005,09,18,10,46,15.10
2005,09,18,10,47,15.20
2005,09,18,10,48,15.20
2005,09,18,10,49,15.30
2005,09,18,10,50,15.30
2005,09,18,10,51,15.30
2005,09,18,10,52,15.40
2005,09,18,10,53,15.50
2005,09,18,10,54,15.50
2005,09,18,10,55,15.60
2005,09,18,10,56,15.70
2005,09,18,10,57,15.80
2005,09,18,10,58,15.90
2005,09,18,10,59,15.90
2005,09,18,11,00,16.00
2005,09,18,11,01,16.10
2005,09,18,11,02,16.10
2005,09,18,11,03,16.10
2005,09,18,11,04,16.20
2005,09,18,11,05,16.20
2005,09,18,11,06,16.30
2005,09,18,11,07,16.30
2005,09,18,11,08,16.20
2005,09,18,11,09,16.20
2005,09,18,11,10,16.10
2005,09,18,11,11,16.10
2005,09,18,11,12,16.10
2005,09,18,11,13,16.10
2005,09,18,11,14,16.10
2005,09,18,11,15,16.20
2005,09,18,11,16,16.20
2005,09,18,11,17,16.30
2005,09,18,11,18,16.30
2005,09,18,11,19,16.40
2005,09,18,11,20,16.40
2005,09,18,11,21,16.50
2005,09,18,11,22,16.60
2005,09,18,11,23,16.60
2005,09,18,11,24,16.70
2005,09,18,11,25,16.70
2005,09,18,11,26,16.70
2005,09,18,11,27,16.70
2005,09,18,11,28,16.70
2005,09,18,11,29,16.70
2005,09,18,11,30,16.70
2005,09,18,11,31,16.70
2005,09,18,11,32,16.70
2005,09,18,11,33,16.70
2005,09,18,11,34,16.70
2005,09,18,11,35,16.60
2005,09,18,11,36,16.60
2005,09,18,11,37,16.60
2005,09,18,11,38,16.60
2005,09,18,11,39,16.60
2005,09,18,11,40,16.60
2005,09,18,11,41,16.50
2005,09,18,11,42,16.40
2005,09,18,11,43,16.40
2005,09,18,11,44,16.50
2005,09,18,11,45,16.60
2005,09,18,11,46,16.70
2005,09,18,11,47,16.70
2005,09,18,11,48,16.80
2005,09,18,11,49,16.80
2005,09,18,11,50,16.90
2005,09,18,11,51,17.00
2005,09,18,11,52,17.00
2005,09,18,11,53,17.10
2005,09,18,11,54,17.20
2005,09,18,11,55,17.20
2005,09,18,11,56,17.20
2005,09,18,11,57,17.20
2005,09,18,11,58,17.20
2005,09,18,11,59,17.20
2005,09,18,12,00,17.30
2005,09,18,12,01,17.30
2005,09,18,12,02,17.30
2005,09,18,12,03,17.30
2005,09,18,12,04,17.30
2005,09,18,12,05,17.30
2005,09,18,12,06,17.30
2005,09,18,12,07,17.30
2005,09,18,12,08,17.30
2005,09,18,12,09,17.30
2005,09,18,12,10,17.30
2005,09,18,12,11,17.30
2005,09,18,12,12,17.30
2005,09,18,12,13,17.30
2005,09,18,12,14,17.20
2005,09,18,12,15,17.10
2005,09,18,12,16,16.80
2005,09,18,12,17,16.70
2005,09,18,12,18,16.40
2005,09,18,12,19,16.30
2005,09,18,12,20,16.30
2005,09,18,12,21,16.40
2005,09,18,12,22,16.40
2005,09,18,12,23,16.40
2005,09,18,12,24,16.40
2005,09,18,12,25,16.40
2005,09,18,12,26,16.40
2005,09,18,12,27,16.40
2005,09,18,12,28,16.30
2005,09,18,12,29,16.30
2005,09,18,12,30,16.40
2005,09,18,12,31,16.40
2005,09,18,12,32,16.30
2005,09,18,12,33,16.20
2005,09,18,12,34,16.10
2005,09,18,12,35,15.90
2005,09,18,12,36,15.80
2005,09,18,12,37,15.80
2005,09,18,12,38,15.80
2005,09,18,12,39,15.70
2005,09,18,12,40,15.70
2005,09,18,12,41,15.70
2005,09,18,12,42,15.70
2005,09,18,12,43,15.70
2005,09,18,12,44,15.70
2005,09,18,12,45,15.60
2005,09,18,12,46,15.50
2005,09,18,12,47,15.40
2005,09,18,12,48,15.40
2005,09,18,12,49,15.30
2005,09,18,12,50,15.30
2005,09,18,12,51,15.30
2005,09,18,12,52,15.30
2005,09,18,12,53,15.30
2005,09,18,12,54,15.30
2005,09,18,12,55,15.30
2005,09,18,12,56,15.30
2005,09,18,12,57,15.30
2005,09,18,12,58,15.40
2005,09,18,12,59,15.40
2005,09,18,13,00,15.40
2005,09,18,13,01,15.30
2005,09,18,13,02,15.30
2005,09,18,13,03,15.30
2005,09,18,13,04,15.20
2005,09,18,13,05,15.20
2005,09,18,13,06,15.20
2005,09,18,13,07,15.10
2005,09,18,13,08,15.10
2005,09,18,13,09,15.10
2005,09,18,13,10,15.10
2005,09,18,13,11,15.10
2005,09,18,13,12,15.10
2005,09,18,13,13,15.20
2005,09,18,13,14,15.20
2005,09,18,13,15,15.20
2005,09,18,13,16,15.30
2005,09,18,13,17,15.40
2005,09,18,13,18,15.60
2005,09,18,13,19,15.60
2005,09,18,13,20,15.60
2005,09,18,13,21,15.70
2005,09,18,13,22,15.70
2005,09,18,13,23,15.90
2005,09,18,13,24,15.90
2005,09,18,13,25,15.80
2005,09,18,13,26,15.70
2005,09,18,13,27,15.50
2005,09,18,13,28,15.30
2005,09,18,13,29,15.10
2005,09,18,13,30,15.00
2005,09,18,13,31,14.80
2005,09,18,13,32,14.60
2005,09,18,13,33,14.60
2005,09,18,13,34,14.50
2005,09,18,13,35,14.50
2005,09,18,13,36,14.40
2005,09,18,13,37,14.40
2005,09,18,13,38,14.50
2005,09,18,13,39,14.50
2005,09,18,13,40,14.60
2005,09,18,13,41,14.60
2005,09,18,13,42,14.60
2005,09,18,13,43,14.50
2005,09,18,13,44,14.60
2005,09,18,13,45,14.60
2005,09,18,13,46,14.60
2005,09,18,13,47,14.60
2005,09,18,13,48,14.60
2005,09,18,13,49,14.50
2005,09,18,13,50,14.50
2005,09,18,13,51,14.50
2005,09,18,13,52,14.60
2005,09,18,13,53,14.60
2005,09,18,13,54,14.70
2005,09,18,13,55,14.70
2005,09,18,13,56,14.80
2005,09,18,13,57,14.90
2005,09,18,13,58,15.00
2005,09,18,13,59,15.10
2005,09,18,14,00,15.20
2005,09,18,14,01,15.20
2005,09,18,14,02,15.20
2005,09,18,14,03,15.20
2005,09,18,14,04,15.20
2005,09,18,14,05,15.20
2005,09,18,14,06,15.30
2005,09,18,14,07,15.30
2005,09,18,14,08,15.30
2005,09,18,14,09,15.40
2005,09,18,14,10,15.50
2005,09,18,14,11,15.50
2005,09,18,14,12,15.50
2005,09,18,14,13,15.40
2005,09,18,14,14,15.20
2005,09,18,14,15,15.10
2005,09,18,14,16,15.10
2005,09,18,14,17,15.20
2005,09,18,14,18,15.20
2005,09,18,14,19,15.20
2005,09,18,14,20,15.20
2005,09,18,14,21,15.30
2005,09,18,14,22,15.30
2005,09,18,14,23,15.30
2005,09,18,14,24,15.30
2005,09,18,14,25,15.30
2005,09,18,14,26,15.40
2005,09,18,14,27,15.40
2005,09,18,14,28,15.40
2005,09,18,14,29,15.40
2005,09,18,14,30,15.40
2005,09,18,14,31,15.50
2005,09,18,14,32,15.50
2005,09,18,14,33,15.50
2005,09,18,14,34,15.50
2005,09,18,14,35,15.50
2005,09,18,14,36,15.50
2005,09,18,14,37,15.60
2005,09,18,14,38,15.60
2005,09,18,14,39,15.60
2005,09,18,14,40,15.70
2005,09,18,14,41,15.70
2005,09,18,14,42,15.80
2005,09,18,14,43,15.80
2005,09,18,14,44,15.80
2005,09,18,14,45,15.90
2005,09,18,14,46,15.90
2005,09,18,14,47,16.00
2005,09,18,14,48,16.10
2005,09,18,14,49,16.10
2005,09,18,14,50,16.20
2005,09,18,14,51,16.20
2005,09,18,14,52,16.20
2005,09,18,14,53,16.30
2005,09,18,14,54,16.30
2005,09,18,14,55,16.40
2005,09,18,14,56,16.40
2005,09,18,14,57,16.40
2005,09,18,14,58,16.50
2005,09,18,14,59,16.60
2005,09,18,15,00,16.50
2005,09,18,15,01,16.40
2005,09,18,15,02,16.40
2005,09,18,15,03,16.40
2005,09,18,15,04,16.40
2005,09,18,15,05,16.40
2005,09,18,15,06,16.40
2005,09,18,15,07,16.40
2005,09,18,15,08,16.30
2005,09,18,15,09,16.30
2005,09,18,15,10,16.30
2005,09,18,15,11,16.30
2005,09,18,15,12,16.40
2005,09,18,15,13,16.40
2005,09,18,15,14,16.40
2005,09,18,15,15,16.50
2005,09,18,15,16,16.60
2005,09,18,15,17,16.60
2005,09,18,15,18,16.60
2005,09,18,15,19,16.60
2005,09,18,15,20,16.60
2005,09,18,15,21,16.50
2005,09,18,15,22,16.30
2005,09,18,15,23,16.10
2005,09,18,15,24,16.10
2005,09,18,15,25,15.90
2005,09,18,15,26,15.80
2005,09,18,15,27,15.90
2005,09,18,15,28,15.90
2005,09,18,15,29,15.90
2005,09,18,15,30,15.80
2005,09,18,15,31,15.80
2005,09,18,15,32,15.80
2005,09,18,15,33,15.80
2005,09,18,15,34,15.80
2005,09,18,15,35,15.80
2005,09,18,15,36,15.90
2005,09,18,15,37,15.90
2005,09,18,15,38,15.90
2005,09,18,15,39,15.90
2005,09,18,15,40,15.90
2005,09,18,15,41,15.80
2005,09,18,15,42,15.80
2005,09,18,15,43,15.80
2005,09,18,15,44,15.80
2005,09,18,15,45,15.80
2005,09,18,15,46,15.80
2005,09,18,15,47,15.80
2005,09,18,15,48,15.80
2005,09,18,15,49,15.80
2005,09,18,15,50,15.80
2005,09,18,15,51,15.80
2005,09,18,15,52,15.80
2005,09,18,15,53,15.80
2005,09,18,15,54,15.80
2005,09,18,15,55,15.80
2005,09,18,15,56,15.80
2005,09,18,15,57,16.00
2005,09,18,15,58,16.10
2005,09,18,15,59,16.10
2005,09,18,16,00,16.10
2005,09,18,16,01,16.10
2005,09,18,16,02,16.10
2005,09,18,16,03,16.10
2005,09,18,16,04,16.10
2005,09,18,16,05,16.10
2005,09,18,16,06,16.10
2005,09,18,16,07,16.00
2005,09,18,16,08,15.90
2005,09,18,16,09,16.00
2005,09,18,16,10,16.10
2005,09,18,16,11,16.10
2005,09,18,16,12,16.10
2005,09,18,16,13,16.00
2005,09,18,16,14,15.90
2005,09,18,16,15,16.00
2005,09,18,16,16,15.90
2005,09,18,16,17,16.10
2005,09,18,16,18,16.10
2005,09,18,16,19,16.10
2005,09,18,16,20,16.10
2005,09,18,16,21,16.10
2005,09,18,16,22,16.10
2005,09,18,16,23,16.10
2005,09,18,16,24,16.20
2005,09,18,16,25,16.20
2005,09,18,16,26,16.30
2005,09,18,16,27,16.40
2005,09,18,16,28,16.40
2005,09,18,16,29,16.40
2005,09,18,16,30,16.50
2005,09,18,16,31,16.60
2005,09,18,16,32,16.70
2005,09,18,16,33,16.70
2005,09,18,16,34,16.90
2005,09,18,16,35,17.00
2005,09,18,16,36,17.10
2005,09,18,16,37,17.20
2005,09,18,16,38,17.40
2005,09,18,16,39,17.50
2005,09,18,16,40,17.60
2005,09,18,16,41,17.70
2005,09,18,16,42,17.80
2005,09,18,16,43,17.90
2005,09,18,16,44,17.90
2005,09,18,16,45,18.00
2005,09,18,16,46,18.10
2005,09,18,16,47,18.10
2005,09,18,16,48,18.10
2005,09,18,16,49,18.10
2005,09,18,16,50,18.10
2005,09,18,16,51,18.10
2005,09,18,16,52,18.10
2005,09,18,16,53,18.10
2005,09,18,16,54,18.00
2005,09,18,16,55,17.90
2005,09,18,16,56,17.90
2005,09,18,16,57,17.90
2005,09,18,16,58,17.90
2005,09,18,16,59,17.90
2005,09,18,17,00,17.80
2005,09,18,17,01,17.80
2005,09,18,17,02,17.70
2005,09,18,17,03,17.70
2005,09,18,17,04,17.70
2005,09,18,17,05,17.70
2005,09,18,17,06,17.70
2005,09,18,17,07,17.60
2005,09,18,17,08,17.60
2005,09,18,17,09,17.60
2005,09,18,17,10,17.60
2005,09,18,17,11,17.50
2005,09,18,17,12,17.50
2005,09,18,17,13,17.50
2005,09,18,17,14,17.50
2005,09,18,17,15,17.50
2005,09,18,17,16,17.50
2005,09,18,17,17,17.50
2005,09,18,17,18,17.50
2005,09,18,17,19,17.50
2005,09,18,17,20,17.50
2005,09,18,17,21,17.50
2005,09,18,17,22,17.50
2005,09,18,17,23,17.50
2005,09,18,17,24,17.40
2005,09,18,17,25,17.40
2005,09,18,17,26,17.40
2005,09,18,17,27,17.30
2005,09,18,17,28,17.30
2005,09,18,17,29,17.30
2005,09,18,17,30,17.30
2005,09,18,17,31,17.30
2005,09,18,17,32,17.30
2005,09,18,17,33,17.30